Location: GMARS
(34.2910°N, 116.3838°W)
Time: 00:09:50
(UTC-08:00)

Envisat - Pass Details

Date: 24 October 2019
Orbit: 764 x 766 km, 98.1° (Epoch: 17 November)

Event Time Altitude Azimuth Distance (km) Brightness Sun altitude
Rises 19:38:20 0° 191° (S) 3,215 6.4 -20.8°
Reaches altitude 10° 19:40:53 10° 202° (SSW) 2,293 5.7 -21.3°
Maximum altitude 19:45:19 31° 263° (W) 1,328 4.9 -22.2°
Drops below altitude 10° 19:49:47 10° 325° (NW) 2,305 5.9 -23.2°
Sets 19:52:21 0° 336° (NNW) 3,235 6.6 -23.7°
